User: anonymous   Login
Location: Unspecified
(0.0000°N, 0.0000°E)
Time: 20:11:23
(UTC+00:00)
Language:

OPTUS D1 - Orbit

View from above orbital plane
View from above orbital plane
View from above satellite
View from above satellite

Ground track
Ground track

The orbit data is extracted from the following two-line orbital elements,

1 29495U 06043B   17017.80573455 -.00000121  00000-0  00000+0 0  9999
2 29495   0.0158  93.8190 0003538 203.9199 269.7098  1.00272325 37673
Epoch (UTC): 17 January 2017 19:20:15
Eccentricity: 0.0003538
inclination: 0.0158°
perigee height: 35771 km
apogee height: 35801 km
right ascension of ascending node: 93.8190°
argument of perigee: 203.9199°
revolutions per day: 1.00272325
mean anomaly at epoch: 269.7098°
orbit number at epoch: 3767

The dashed part of the orbit path shows where the satellite is in the earth's shadow,  

DLR